NUSTAR

Last updated on Sat Oct 18 2025 00:03:40 GMT+0000 (Coordinated Universal Time)

1 38358U 12031A 25290.75002315 .00038623 00000+0 25437-2 0 9999 2 38358 6.0275 48.4318 0007798 113.2370 250.3261 15.05397153 1307
UTC large
Height (km)
Speed (km/s)
/
Latitude / Longitude
Inclination (degrees)
Orbital Period (minutes)
Azimuth
Elevation
Range (km)
Doppler Factor

Next 0 passes for location: London (51.5072 / 0.1276)

Sorry there are no passes over London.